Location: *
(50.9167°S, 179.4000°W)
Time: 21:29:36
(UTC+00:00)

Cosmos 1943 Rocket - Pass Details

Date: 03 March 2024
Orbit: 810 x 844 km, 71.0° (Epoch: 16 April)

Event Time Altitude Azimuth Distance (km) Brightness Sun altitude
Rises 12:08:07 0° 212° (SSW) 3,419 6.1 -32.6°
Reaches altitude 10° 12:10:36 10° 215° (SW) 2,474 5.2 -32.6°
Enters shadow 12:14:12 39° 231° (SW) 1,251 3.2 -32.6°
